Home > Time Zones > World Clock > Weather > Spain > Palma > Past weeks

Flag for Spain Weather past 2 weeks in Palma, Majorca, Spain

Now
73 °F

Passing clouds.


Feels Like: 76 °F
Forecast: 54 / 76 °F
Wind: 15 mph from Southwest

Location: Palma De Mallorca / Son San Juan

Current Time: May 27, 2015 at 4:30:33 PM

Latest Report: May 27, 2015 at 3:30 PM


Visibility: N/A

Pressure: 30.09 "Hg

Humidity: 65%

Dew point: 61 °F

Location of PalmaLocation

Historic Weather in Palma — Graph

°F

Palma temperature yesterday

Maximum temperature yesterday: 75 °F (at 12:00 PM)
Minimum temperature yesterday: 59 °F (at 1:30 AM)
Average temperature yesterday: 68 °F

Past Weeks' High & Low Weather Summary

 TemperatureHumidityPressure
High86 °F (May 12, 4:00 PM)100% (May 14, 3:00 AM)30.27 "Hg (May 14, 3:00 AM)
Low45 °F (May 23, 6:30 AM)20% (May 12, 5:00 PM)29.77 "Hg (May 14, 9:30 PM)
Average66 °F64%30.06 "Hg
* Reported May 12 3:00 PM — May 27 3:30 PM, Palma, Weather by CustomWeather, © 2015

Note: Actual official high and low records may vary slightly from our data, if they occured in-between our weather recording intervals... More about our weather records

Advertising

Palma weather history for previous 24 hours

 ConditionsComfort  
Time TempWeatherWind HumidityBarometerVisibility
3:30 PM
Wed, May 27
73 °FPassing clouds.15 mph65%30.09 "HgN/A
3:00 PM73 °FPassing clouds.14 mph61%30.09 "HgN/A
2:30 PM73 °FPassing clouds.15 mph57%30.09 "HgN/A
2:00 PM75 °FPassing clouds.15 mph54%30.09 "HgN/A
1:30 PM73 °FScattered clouds.13 mph61%30.12 "HgN/A
1:00 PM73 °FScattered clouds.12 mph57%30.12 "HgN/A
12:30 PM73 °FScattered clouds.12 mph61%30.12 "HgN/A
12:00 PM73 °FScattered clouds.12 mph61%30.09 "HgN/A
11:30 AM72 °FScattered clouds.10 mph61%30.09 "HgN/A
11:00 AM72 °FScattered clouds.9 mph61%30.09 "HgN/A
10:30 AM72 °FScattered clouds.8 mph61%30.09 "HgN/A
10:00 AM72 °FPassing clouds.8 mph61%30.09 "HgN/A
9:30 AM70 °FPassing clouds.1 mph60%30.09 "HgN/A
9:00 AM68 °FPassing clouds.No wind53%30.09 "HgN/A
8:30 AM63 °FPassing clouds.No wind68%30.09 "HgN/A
8:00 AM59 °FSunny.No wind72%30.07 "Hg10 mi
7:30 AM55 °FSunny.No wind82%30.07 "Hg10 mi
7:00 AM52 °FClear.No wind88%30.07 "Hg10 mi
6:30 AM52 °FClear.No wind88%30.07 "Hg10 mi
5:30 AM52 °FClear.No wind94%30.07 "Hg10 mi
5:00 AM54 °FClear.No wind88%30.07 "Hg10 mi
4:30 AM54 °FClear.1 mph88%30.07 "Hg10 mi
4:00 AM55 °FClear.1 mph82%30.07 "Hg10 mi
3:30 AM55 °FClear.1 mph88%30.07 "Hg10 mi
3:00 AM57 °FClear.No wind77%30.07 "Hg10 mi
2:30 AM57 °FClear.1 mph82%30.07 "Hg10 mi
2:00 AM57 °FClear.No wind82%30.07 "Hg10 mi
1:30 AM57 °FClear.2 mph77%30.07 "Hg10 mi
1:00 AM57 °FClear.No wind77%30.07 "Hg10 mi
12:30 AM59 °FClear.1 mph77%30.09 "Hg10 mi
12:00 AM59 °FClear.No wind77%30.07 "Hg10 mi
11:30 PM
Tue, May 26
61 °FClear.No wind72%30.07 "Hg10 mi
10:30 PM63 °FClear.3 mph68%30.07 "Hg10 mi
10:00 PM63 °FSunny.2 mph64%30.07 "Hg10 mi
9:30 PM64 °FSunny.5 mph60%30.04 "Hg10 mi
9:00 PM68 °FPassing clouds.8 mph53%30.04 "HgN/A
8:30 PM70 °FPassing clouds.8 mph50%30.04 "HgN/A
8:00 PM72 °FPassing clouds.12 mph47%30.01 "HgN/A
7:30 PM73 °FPassing clouds.12 mph44%30.01 "HgN/A
7:00 PM73 °FPassing clouds.12 mph50%29.98 "HgN/A
6:30 PM75 °FPassing clouds.10 mph50%29.98 "HgN/A
6:00 PM75 °FPassing clouds.8 mph54%29.98 "HgN/A
5:30 PM75 °FPassing clouds.6 mph57%29.98 "HgN/A
5:00 PM75 °FPassing clouds.13 mph57%29.98 "HgN/A
4:30 PM73 °FPassing clouds.13 mph57%29.98 "HgN/A
4:00 PM73 °FPassing clouds.15 mph57%29.98 "HgN/A
Weather by CustomWeather, © 2015

See weather overviewHow to use our weather pages